EHI
0 0 0 0 0 0 0 0 0 0 0 0 0 0 0 0 0 0 0 0 0 0 0 0 0 0 0 0 0 0 0 0 0 0 0 0 0 0 0 0 0 0 0 0 0 0 0 0 0
0 0 0 0 0 0 0 0 0 0 0 0 0 0 0 0 0 0 0 0 0 0 0 0 0 0 0 0 0 0 0 0 0 0 0 0 0 0 0 0 0 0 0 0 0 0 0 0 0
0 0 0 0 0 0 0 0 0 0 0 0 0 0 0 0 0 0 0 0 0 0 0 0 0 0 0 0 0 0 0 0 0 0 0 0 0 0 0 0 0 0 0 0 0 0 0 0 0
0 0 0 0 0 0 0 0 0 0 0 0 0 0 0 0 0 0 0 0 0 0 0 0 0 0 0 0 0 0 0 0 0 0 0 0 0 0 0 0 0 0 0 0 0 0 0 0 0
0 0 0 0 0 0 0 0 0 0 0 0 0 0 0 0 0 0 0 0 0 0 0 0 0 0 0 0 0 0 0 0 0 0 0 0 0 0 0 0 0 0 0 0 0 0 0 0 0
0 0 0 0 0 0 0 0 0 0 0 0 0 0 0 0 0 0 0 0 0 0 0 0 0 0 0 0 0 0 0 0 0 0 0 0 0 0 0 0 0 0 0 0 0 0 0 0 0
0 0 0 0 0 0 0 0 0 0 0 0 0 0 0 0 0 0 0 0 0 0 0 0 0 0 0 0 0 0 0 0 0 0 0 0 0 0 0 0 0 0 0 0 0 0 0 0 0
0 0 0 0 0 0 0 0 0 0 0 0 0 0 0 0 0 0 0 0 0 0 0 0 0 0 0 0 0 0 0 0 0 0 0 0 0 0 0 0 0 0 0 0 0 0 0 0 0
0 0 0 0 0 0 0 0 0 0 0 0 0 0 0 0 0 0 0 0 0 0 0 0 0 0 0 0 0 0 0 0 0 0 0 0 0 0 0 0 0 0 0 0 0 0 0 0 0
0 0 0 0 0 0 0 0 0 0 0 0 0 0 0 0 0 0 0 0 0 0 0 0 0 0 0 0 0 0 0 0 0 0 0 0 0 0 0 0 0 0 0 0 0 0 0 0 0
0 0 0 0 0 0 0 0 0 0 0 0 0 0 0 0 0 0 0 0 0 0 0 0 0 0 0 0 0 0 0 0 0 0 0 0 0 0 0 0 0 0 0 0 0 0 0 0 0
0 0 0 0 0 0 0 0 0 0 0 0 0 0 0 0 0 0 0 0 0 0 0 0 0 0 0 0 0 0 0 0 0 0 0 0 0 0 0 0 0 0 0 0 0 0 0 0 0
0 0 0 0 0 0 0 0 0 0 0 0 0 0 0 0 0 0 0 0 0 0 0 0 0 0 0 0 0 0 0 0 0 0 0 0 0 0 0 0 0 0 0 0 0 0 0 0 0
0 0 0 0 0 0 0 0 0 0 0 0 0 0 0 0 0 0 0 0 0 0 0 0 0 0 0 0 0 0 0 0 0 0 0 0 0 0 0 0 0 0 0 0 0 0 0 0 0
0 0 0 0 0 0 0 0 0 0 0 0 0 0 0 0 0 0 0 0 0 0 0 0 0 0 0 0 0 0 0 0 0 0 0 0 0 0 0 0 0 0 0 0 0 0 0 0 0
0 0 0 0 0 0 0 0 0 0 0 0 0 0 0 0 0 0 0 0 0 0 0 0 0 0 0 0 0 0 0 0 0 0 0 0 0 0 0 0 0 0 0 0 0 0 0 0 0
0 0 0 0 0 0 0 0 0 0 0 0 0 0 0 0 0 0 0 0 0 0 0 0 0 0 0 0 0 0 0 0 0 0 0 0 0 0 0 0 0 0 0 0 0 0 0 0 0
0 0 0 0 0 0 0 0 0 0 0 0 0 0 0 0 0 0 0 0 0 0 0 0 0 0 0 0 0 0 0 0 0 0 0 0 0 0 0 0 0 0 0 0 0 0 0 0 0
0 0 0 0 0 0 0 0 0 0 0 0 0 0 0 0 0 0 0 0 0 0 0 0 0 0 0 0 0 0 0 0 0 0 0 0 0 0 0 0 0 0 0 0 0 0 0 0 0
0 0 0 0 0 0 0 0 0 0 0 0 0 0 0 0 0 0 0 0 0 0 0 0 0 0 0 0 0 0 0 0 0 0 0 0 0 0 0 0 0 0 0 0 0 0 0 0 0
0 0 0 0 0 0 0 0 0 0 0 0 0 0 0 0 0 0 0 0 0 0 0 0 0 0 0 0 0 0 0 0 0 0 0 0 0 0 0 0 0 0 0 0 0 0 0 0 0
0 0 0 0 0 0 0 0 0 0 0 0 0 0 0 0 0 0 0 0 0 0 0 0 0 0 0 0 0 0 0 0 0 0 0 0 0 0 0 0 0 0 0 0 0 0 0 0 0
0 0 0 0 0 0 0 0 0 0 0 0 0 0 0 0 0 0 0 0 0 0 0 0 0 0 0 0 0 0 0 0 0 0 0 0 0 0 0 0 0 0 0 0 0 0 0 0 0
0 0 0 0 0 0 0 0 0 0 0 0 0 0 0 0 0 0 0 0 0 0 0 0 0 0 0 0 0 0 0 0 0 0 0 0 0 0 0 0 0 0 0 0 0 0 0 0 0
0 0 0 0 0 0 0 0 0 0 0 0 0 0 0 0 0 0 0 0 0 0 0 0 0 0 0 0 0 0 0 0 0 0 0 0 0 0 0 0 0 0 0 0 0 0 0 0 0
0 0 0 0 0 0 0 0 0 0 0 0 0 0 0 0 0 0 0 0 0 0 0 0 0 0 0 0 0 0 0 0 0 0 0 0 0 0 0 0 0 0 0 0 0 0 0 0 0
0 0 0 0 0 0 0 0 0 0 0 0 0 0 0 0 0 0 0 0 0 0 0 0 0 0 0 0 0 0 0 0 0 0 0 0 0 0 0 0 0 0 0 0 0 0 0 0 0
0 0 0 0 0 0 0 0 0 0 0 0 0 0 0 0 0 0 0 0 0 0 0 0 0 0 0 0 0 0 0 0 0 0 0 0 0 0 0 0 0 0 0 0 0 0 0 0 0
0 0 0 0 0 0 0 0 0 0 0 0 0 0 0 0 0 0 0 0 0 0 0 0 0 0 0 0 0 0 0 0 0 0 0 0 0 0 0 0 0 0 0 0 0 0 0 0 0
0 0 0 0 0 0 0 0 0 0 0 0 0 0 0 0 0 0 0 0 0 0 0 0 0 0 0 0 0 0 0 0 0 0 0 0 0 0 0 0 0 0 0 0 0 0 0 0 0
Wind_Speed
5 3 1 3 2 7 8 6 6 8 5 6 7 6 8 9 6 8 5 8 10 11 12 15 19 19 20 21 22 22 23 23 24 24 25 25 26 26 25 26 26 26 26 26 26 26 26 26 26
4 1 1 1 1 6 7 5 8 7 10 9 6 6 7 8 7 7 4 8 9 10 11 14 18 19 20 21 21 22 22 22 23 24 24 25 25 25 25 26 25 25 25 25 25 25 26 26 26
5 4 4 4 5 6 9 8 11 11 9 4 5 5 5 7 6 5 5 6 7 9 11 14 18 18 19 20 20 21 21 22 22 23 23 24 25 25 25 25 25 25 25 25 25 25 25 26 26
1 3 5 7 11 6 7 12 12 11 6 4 6 8 6 5 4 6 6 6 7 10 11 14 18 18 19 19 20 20 21 21 22 23 23 24 24 25 25 25 25 25 25 25 25 25 25 25 26
1 2 6 8 8 7 8 11 10 7 7 6 6 7 8 6 7 7 6 6 8 10 10 12 17 18 18 19 19 20 20 21 22 23 23 24 24 25 24 25 25 25 25 25 25 25 25 25 25
2 2 5 8 9 8 8 7 7 6 7 7 7 9 8 8 7 6 6 6 8 9 9 10 14 16 17 18 19 19 20 20 21 22 23 23 23 24 23 24 25 25 25 25 26 26 26 25 25
3 5 7 10 10 8 7 7 7 7 8 7 7 8 9 10 7 6 5 5 6 8 9 10 11 12 13 14 17 17 18 19 19 20 22 22 21 22 22 23 24 25 25 25 25 26 26 26 25
3 7 8 8 10 9 9 6 4 5 7 6 5 6 9 13 10 6 4 4 5 7 9 10 11 11 11 9 13 15 16 18 18 18 20 21 19 20 21 21 24 25 25 25 25 25 26 26 24
1 4 6 7 7 9 11 8 5 3 8 5 3 1 7 15 11 6 4 4 5 7 8 9 10 10 10 9 9 11 12 15 15 14 19 17 13 14 15 20 23 24 24 24 24 25 25 24 21
5 5 6 3 2 9 12 8 10 8 9 7 7 7 13 14 11 7 4 4 6 8 8 8 10 10 10 8 7 7 8 10 11 11 14 11 12 11 14 18 20 22 22 22 22 24 21 17 13
8 8 7 5 5 10 11 9 9 9 8 9 12 17 17 14 10 7 4 4 5 6 7 8 8 9 9 7 7 5 5 7 8 11 12 11 10 9 10 9 11 14 16 13 16 16 12 13 13
9 8 7 8 6 9 10 10 8 10 2 4 12 18 17 14 11 8 5 4 4 6 7 7 7 8 9 8 6 6 6 6 6 9 11 10 8 9 10 9 11 10 9 12 12 11 15 16 16
8 8 6 8 8 8 8 8 5 8 2 8 15 16 16 13 11 7 5 4 3 5 6 7 7 8 8 7 6 6 7 7 8 7 9 11 9 10 11 10 10 12 11 12 13 13 16 16 16
9 11 10 7 7 6 6 5 5 7 9 13 16 16 14 13 11 9 7 4 3 4 6 6 6 8 8 7 7 7 7 7 7 7 10 11 10 10 11 11 11 11 11 12 13 15 15 14 14
9 9 7 5 4 4 5 7 9 8 13 16 16 15 14 13 11 10 7 5 3 3 4 6 7 8 9 9 9 6 7 8 7 7 9 11 11 12 12 11 11 11 12 14 13 15 13 13 15
5 5 5 6 5 4 6 6 6 12 16 16 16 15 14 13 13 10 8 6 3 2 3 5 5 8 9 9 8 6 7 8 7 7 8 11 12 13 12 11 11 12 12 12 12 13 13 14 14
4 3 2 5 6 5 7 7 6 12 15 15 15 15 14 14 14 11 9 7 4 2 2 4 6 8 9 9 8 7 7 7 7 7 8 11 12 13 12 11 11 13 12 12 12 12 13 15 15
1 2 3 2 6 7 9 11 5 12 16 16 15 15 15 15 15 12 10 8 5 3 1 4 6 8 9 7 7 6 7 7 6 7 9 12 11 13 12 10 13 13 12 12 13 16 15 14 15
1 3 5 2 3 6 11 13 10 12 16 17 16 16 16 16 13 11 11 9 6 4 1 4 6 7 7 6 7 7 8 7 7 7 10 11 12 13 12 11 12 12 12 14 16 15 17 15 14
3 5 4 1 2 5 10 14 8 8 16 17 17 17 17 15 13 12 12 10 7 4 0 3 5 7 7 6 6 6 8 6 7 7 9 11 12 13 11 13 12 13 13 15 16 16 14 14 13
3 4 5 6 2 4 9 6 4 4 8 12 15 16 15 15 15 14 13 11 8 4 0 2 5 6 7 8 6 7 6 6 6 8 8 10 12 13 13 14 14 14 14 13 16 17 17 15 14
2 1 4 5 6 2 4 5 4 2 5 9 13 15 15 14 14 13 13 11 8 5 2 2 4 6 6 7 7 9 8 9 10 9 9 12 12 13 13 14 15 15 13 15 16 16 15 16 14
3 1 3 3 4 4 1 6 1 2 3 4 7 11 13 12 12 13 13 10 7 5 2 1 4 5 6 7 8 9 8 8 8 10 12 12 11 12 13 14 14 15 13 15 17 17 16 13 13
2 3 4 4 4 3 2 5 3 3 2 2 3 4 8 10 11 12 11 10 7 5 3 2 4 5 6 7 8 9 10 11 12 12 12 11 10 10 13 14 14 14 14 15 16 16 16 13 14
3 5 4 2 2 3 2 6 6 0 3 5 6 4 6 9 12 13 13 11 8 6 3 2 4 5 6 7 8 8 9 11 12 12 11 12 10 11 14 15 15 14 15 16 15 14 14 13 13
2 4 5 5 7 6 2 6 4 1 3 5 6 6 7 11 12 13 12 10 8 5 4 3 4 5 6 7 8 8 9 7 8 11 11 11 10 11 15 15 15 16 16 15 15 12 12 11 12
1 2 2 4 4 7 6 5 7 4 7 8 8 8 10 12 13 13 11 10 8 6 5 4 4 5 6 7 8 8 8 9 10 11 11 10 11 11 14 15 15 15 15 15 15 11 12 12 11
3 4 3 3 5 7 8 7 4 4 5 6 9 11 11 13 14 13 11 10 8 6 5 4 3 5 6 7 7 6 8 9 10 10 11 12 13 13 14 15 15 15 15 15 14 13 13 13 11
5 4 3 2 3 5 7 6 4 8 6 7 8 8 11 15 15 14 11 10 8 7 6 4 3 4 5 6 7 8 8 9 10 9 11 12 12 13 14 14 14 15 15 15 14 14 14 14 13
3 4 6 4 4 5 6 9 3 7 7 8 10 7 9 13 14 13 12 10 9 8 6 5 4 4 5 6 7 8 8 9 9 10 11 12 12 13 13 14 14 14 14 14 14 13 13 13 13
Wind_Direction
106 125 243 238 118 76 82 84 111 124 97 81 71 70 70 51 29 78 83 15 1 356 353 351 8 12 15 16 17 17 17 17 16 16 15 14 12 10 10 8 6 4 3 1 359 357 355 353 352
82 134 272 344 125 114 98 117 124 104 114 116 91 87 89 83 67 85 67 20 7 6 0 360 10 13 16 17 17 17 17 18 17 16 14 13 10 9 8 7 4 3 1 359 358 356 353 351 349
91 52 48 61 64 87 120 134 123 116 125 129 106 70 72 92 91 83 53 23 16 19 11 7 13 15 18 19 17 18 17 17 16 15 13 12 9 7 6 4 1 1 359 358 357 354 351 349 347
119 86 69 67 83 65 114 135 133 135 135 121 131 112 94 62 75 87 71 37 29 28 20 15 17 17 19 20 18 18 17 17 15 13 11 9 7 4 3 2 358 357 357 355 354 352 350 347 344
72 97 87 82 86 104 115 129 147 147 139 138 143 122 110 105 105 100 79 46 33 30 23 20 20 20 20 20 19 17 16 15 12 10 8 6 4 1 359 359 356 354 353 352 351 349 347 345 342
92 75 106 115 115 128 138 153 166 150 138 144 148 128 119 137 132 104 79 56 40 30 25 25 23 22 19 18 17 15 14 12 10 7 5 2 360 358 356 356 352 351 350 348 348 345 344 342 340
80 73 94 122 135 155 154 166 185 162 153 150 152 136 135 158 137 118 90 64 47 33 28 25 21 20 16 16 15 12 12 10 8 5 2 359 356 354 352 352 349 348 347 345 344 341 340 338 336
75 103 110 135 151 153 146 145 146 169 134 128 174 163 160 161 148 137 104 70 52 39 32 24 21 17 6 4 13 7 8 7 5 2 359 355 352 351 349 349 346 345 343 342 340 338 336 335 331
273 108 131 149 162 149 155 153 133 117 133 147 173 144 131 142 152 156 144 104 64 46 37 26 18 13 2 356 359 358 3 4 360 359 357 353 349 347 345 344 341 341 339 338 336 335 333 331 327
12 93 100 87 117 148 161 168 154 164 168 171 164 141 139 150 163 166 145 83 52 39 33 27 17 8 359 353 351 354 359 357 358 354 353 348 345 341 339 335 336 336 335 333 333 332 330 329 324
47 76 104 94 102 142 152 159 168 182 193 195 182 162 158 165 170 169 145 86 55 41 33 27 17 4 360 352 349 353 350 350 350 351 349 342 340 335 335 333 332 332 331 331 330 327 327 324 320
84 75 94 114 124 149 156 159 184 207 231 181 171 160 164 174 178 176 157 109 73 44 32 23 12 4 359 352 346 351 348 345 344 344 345 343 336 333 333 329 328 328 326 325 324 320 320 318 315
85 106 92 107 121 135 151 178 196 205 185 157 153 163 174 181 180 172 157 135 85 48 32 20 2 2 356 349 342 346 346 343 339 340 342 343 335 331 329 325 324 322 321 321 320 317 317 314 312
103 113 117 122 126 149 173 185 220 200 165 159 164 175 185 187 186 180 181 167 103 52 31 12 359 0 350 346 344 344 342 339 336 340 342 341 335 328 324 321 320 318 320 319 315 313 312 310 309
123 118 129 146 155 156 198 218 220 171 169 172 180 186 192 195 194 197 187 170 123 67 29 11 355 353 345 343 343 340 341 339 337 338 337 338 334 328 325 320 319 319 319 316 312 311 309 309 308
152 170 183 158 178 165 231 263 154 162 178 185 192 195 199 201 204 200 185 175 147 93 23 8 352 342 343 342 338 338 339 340 337 335 333 338 335 332 327 321 319 320 318 314 312 311 311 310 308
189 227 243 165 190 187 231 267 139 175 190 198 201 204 206 206 207 200 190 181 166 127 13 355 352 343 340 336 332 335 336 336 335 335 335 338 335 333 328 321 318 320 316 313 311 311 310 308 307
159 263 267 260 170 210 237 255 186 190 204 211 211 212 213 214 209 198 189 182 173 165 356 351 348 343 338 334 333 333 337 337 337 335 337 336 332 331 327 319 320 319 314 313 313 311 308 305 304
322 282 293 335 138 235 256 268 255 200 209 220 220 219 220 220 211 192 189 185 185 186 306 353 344 345 342 339 339 337 336 331 331 332 332 330 330 329 324 320 318 317 313 312 309 308 307 306 305
250 276 293 262 161 258 292 284 274 216 214 222 227 226 225 221 205 193 191 189 194 194 274 341 345 342 344 340 331 324 319 316 319 325 327 328 328 325 320 318 316 314 312 309 308 308 304 302 304
252 285 315 315 300 223 295 268 162 173 224 232 237 238 233 225 212 197 192 191 192 191 113 347 340 334 337 336 327 322 316 318 330 332 327 328 324 320 317 316 315 312 311 307 308 307 303 302 301
298 317 294 291 290 301 333 314 139 165 231 229 231 231 231 224 217 199 190 188 186 168 142 330 330 327 335 336 333 334 331 331 332 328 321 322 321 319 318 317 316 313 310 308 307 305 300 297 294
326 322 264 257 269 268 219 290 116 150 234 221 227 229 227 220 210 195 186 177 167 156 159 305 316 319 333 335 335 331 329 327 323 324 322 324 322 320 321 322 320 317 315 312 309 306 300 294 289
243 213 184 201 236 251 68 307 291 163 223 238 225 235 222 208 195 183 170 163 161 161 180 271 301 314 330 333 334 332 329 328 325 327 326 326 322 322 325 327 323 322 319 316 313 309 303 296 289
257 295 299 285 282 358 79 272 267 256 247 265 275 267 215 193 182 174 170 172 173 181 198 250 288 314 332 333 332 331 327 324 324 326 325 325 323 324 327 328 326 325 322 320 319 314 310 303 295
21 338 355 324 322 321 227 260 278 195 242 254 261 259 210 192 186 181 177 175 177 185 203 241 285 318 330 330 329 324 324 322 319 322 320 319 319 321 322 324 323 325 325 325 326 319 319 312 303
156 98 12 282 278 278 270 270 283 194 242 238 239 230 211 196 189 184 178 177 181 188 203 239 285 314 326 324 322 319 325 323 319 319 317 317 318 319 321 322 325 327 328 329 329 325 327 320 311
357 133 179 250 302 297 292 275 262 265 275 233 232 228 213 196 190 185 181 180 182 188 201 227 274 308 315 315 318 316 319 320 318 315 317 318 319 320 321 324 326 328 330 330 330 328 336 333 329
160 167 182 184 265 279 298 290 201 259 283 275 267 239 211 195 191 186 181 179 181 188 203 223 259 292 304 311 313 314 318 318 317 315 317 319 319 320 322 324 326 327 329 329 327 331 334 335 336
243 212 195 231 214 232 271 274 194 243 260 262 269 258 215 197 190 184 179 178 185 195 204 218 248 280 299 306 308 311 315 317 317 318 319 318 319 321 321 323 324 326 327 326 325 331 333 335 335